TimeEST,TemperatureF,Dew PointF,Humidity,Sea Level PressureIn,VisibilityMPH,Wind Direction,Wind SpeedMPH,Gust SpeedMPH,PrecipitationIn,Events,Conditions,WindDirDegrees,DateUTC
12:54 AM,33.1,19.9,59,30.21,10.0,Variable,4.6,-,N/A,,Clear,0,2013-02-19 05:54:00
1:54 AM,34.0,21.9,61,30.17,10.0,Variable,3.5,-,N/A,,Clear,0,2013-02-19 06:54:00
2:54 AM,35.1,23.0,61,30.15,10.0,Variable,3.5,-,N/A,,Clear,0,2013-02-19 07:54:00
3:54 AM,36.0,21.9,57,30.15,10.0,Variable,5.8,-,N/A,,Clear,0,2013-02-19 08:54:00
4:54 AM,36.0,21.9,57,30.11,10.0,Variable,4.6,-,N/A,,Clear,0,2013-02-19 09:54:00
5:54 AM,36.0,25.0,64,30.10,10.0,South,5.8,-,N/A,,Clear,190,2013-02-19 10:54:00
7:54 AM,39.0,27.0,62,30.08,10.0,Variable,5.8,-,N/A,,Clear,0,2013-02-19 12:54:00
8:54 AM,39.9,27.0,60,30.05,10.0,South,6.9,-,N/A,,Scattered Clouds,190,2013-02-19 13:54:00
9:54 AM,44.1,28.9,55,30.03,10.0,Variable,6.9,19.6,N/A,,Clear,0,2013-02-19 14:54:00
10:54 AM,46.0,30.9,56,30.01,10.0,SSW,10.4,21.9,N/A,,Mostly Cloudy,210,2013-02-19 15:54:00
1:54 PM,45.0,41.0,86,29.87,10.0,SSW,5.8,-,0.01,Rain,Light Rain,200,2013-02-19 18:54:00
2:33 PM,44.6,41.0,87,29.84,10.0,Variable,3.5,-,0.01,Rain,Light Rain,0,2013-02-19 19:33:00
2:49 PM,44.6,41.0,87,29.82,8.0,Variable,5.8,-,0.01,Rain,Light Rain,0,2013-02-19 19:49:00
2:54 PM,44.1,41.0,89,29.82,6.0,Variable,4.6,-,0.01,Rain,Light Rain,0,2013-02-19 19:54:00
3:33 PM,44.6,42.8,93,29.79,2.5,Variable,4.6,-,0.03,Rain,Light Rain,0,2013-02-19 20:33:00
3:52 PM,46.4,44.6,93,29.77,4.0,Variable,6.9,-,0.04,Rain,Light Rain,0,2013-02-19 20:52:00
3:54 PM,46.0,44.1,93,29.77,4.0,Variable,4.6,-,0.04,Rain,Light Rain,0,2013-02-19 20:54:00
4:21 PM,46.4,44.6,93,29.76,2.5,South,3.5,-,0.02,Rain,Light Rain,190,2013-02-19 21:21:00
4:30 PM,46.4,44.6,93,29.75,3.0,Variable,6.9,-,0.02,Rain,Light Rain,0,2013-02-19 21:30:00
4:37 PM,46.4,44.6,93,29.75,3.0,Variable,4.6,-,0.02,Rain,Light Rain,0,2013-02-19 21:37:00
4:45 PM,46.4,44.6,93,29.75,2.5,Variable,6.9,-,0.03,Rain,Light Rain,0,2013-02-19 21:45:00
4:54 PM,46.9,45.0,93,29.74,3.0,South,8.1,-,0.04,Rain,Light Rain,190,2013-02-19 21:54:00
5:25 PM,46.4,44.6,93,29.74,5.0,Variable,4.6,-,0.01,Rain,Light Rain,0,2013-02-19 22:25:00
5:54 PM,46.0,45.0,96,29.73,7.0,Variable,4.6,-,0.02,Rain,Light Rain,0,2013-02-19 22:54:00
6:25 PM,46.4,44.6,93,29.73,7.0,WSW,5.8,-,0.00,,Overcast,240,2013-02-19 23:25:00
7:38 PM,46.4,42.8,87,29.75,10.0,West,19.6,25.3,N/A,,Overcast,260,2013-02-20 00:38:00
7:50 PM,46.4,42.8,87,29.75,10.0,West,15.0,-,N/A,,Overcast,270,2013-02-20 00:50:00
7:54 PM,46.0,42.1,86,29.75,10.0,West,13.8,-,N/A,,Overcast,270,2013-02-20 00:54:00
8:14 PM,44.6,41.0,87,29.75,10.0,West,12.7,-,N/A,,Overcast,260,2013-02-20 01:14:00
8:54 PM,43.0,39.0,86,29.77,10.0,West,11.5,-,N/A,,Scattered Clouds,270,2013-02-20 01:54:00
9:54 PM,43.0,37.0,80,29.78,10.0,West,10.4,18.4,N/A,,Overcast,280,2013-02-20 02:54:00
10:54 PM,41.0,28.9,62,29.80,10.0,WNW,12.7,21.9,N/A,,Clear,300,2013-02-20 03:54:00
11:54 PM,37.9,27.0,65,29.81,10.0,WNW,12.7,-,N/A,,Clear,300,2013-02-20 04:54:00